Regional Weather Roundup
Issued by NWS

Home | Current Version | Previous Version | Text Only | Print | Product List | Glossary Off
Versions: 1 2 3 4 5 6 7 8 9 10 11 12 13 14 15 16 17 18 19 20 21 22 23 24 25 26 27 28 29 30 31 32 33 34 35 36 37 38 39 40 41 42 43 44 45 46 47 48 49 50

398
ASUS45 KPSR 261310
RWRAZ

ARIZONA HOURLY REGIONAL WEATHER ROUNDUP
NATIONAL WEATHER SERVICE PHOENIX AZ
600 AM MST MON SEP 26 2016

NOTE: FAIR INDICATES FEW OR NO CLOUDS BELOW 12,000 FEET WITH NO
SIGNIFICANT WEATHER AND/OR OBSTRUCTIONS TO VISIBILITY.

AZZ001>003-036-261400-
NORTHWEST ARIZONA

CITY           SKY/WX    TMP DP  RH WIND       PRES   REMARKS
BULLHEAD CITY  CLEAR     79  36  21 N24       30.03R
KINGMAN        CLEAR     54  30  40 E6        30.22R
$$

AZZ004>008-015-016-018-261400-
NORTH CENTRAL ARIZONA

CITY           SKY/WX    TMP DP  RH WIND       PRES   REMARKS
GRAND CANYON   CLEAR     53  30  41 E8        30.45R
PRESCOTT       PTCLDY    48  39  71 S3        30.31R
FLAGSTAFF      PTCLDY    50  31  48 NE7       30.45R
PAYSON         MOCLDY    61  30  31 N10       30.34R
PAGE           CLEAR     57  33  40 SW5       30.36R
$$

AZZ009>014-017-261400-
NORTHEAST ARIZONA

CITY           SKY/WX    TMP DP  RH WIND       PRES   REMARKS
WINSLOW        PTCLDY    49  29  46 W8        30.38R
SAINT JOHNS    PTCLDY    51  35  54 E10       30.40R
WINDOW ROCK    CLEAR     35  28  75 CALM      30.49R
SHOW LOW       MOCLDY    46  32  57 E12       30.39R
$$

AZZ023-261400-
GREATER PHOENIX AREA

CITY           SKY/WX    TMP DP  RH WIND       PRES   REMARKS
PHOENIX        CLOUDY    82  43  25 E6        30.02R
BUCKEYE        CLOUDY    82  43  24 E10       30.03R
GLENDALE       CLOUDY    82  43  24 N7        30.04
LUKE AFB       CLOUDY    82  42  24 E6        30.02R
DEER VALLEY    CLOUDY    80  39  23 NE3       30.05R
SCOTTSDALE     CLOUDY    83  46  27 E9        30.07R
MESA-FALCON    MOCLDY   N/A N/A N/A N6        30.03
MESA-GATEWAY   MOCLDY    81  46  30 E7        30.06R
CHANDLER       PTCLDY    81  50  34 SE9       30.05
$$

AZZ027-028-261400-
SOUTHWEST MARICOPA COUNTY AND PINAL COUNTY

CITY           SKY/WX    TMP DP  RH WIND       PRES   REMARKS
CASA GRANDE    CLOUDY    75  43  31 NE3       30.07R
GILA BEND      CLOUDY    79  42  26 NE9       29.98R
$$

AZZ503-504-507>509-261400-
SOUTHEAST ARIZONA

CITY           SKY/WX    TMP DP  RH WIND       PRES   REMARKS
TUCSON         LGT RAIN  70  54  56 SE20      30.14S
DAVIS-MONTHAN  CLOUDY    67  57  71 SE9       30.14R
RYAN FIELD     PTCLDY    73  48  40 E20G28    30.12
NOGALES        CLOUDY    68  45  43 SE5       30.16S
SIERRA VISTA   LGT RAIN  58  48  71 SE10      30.24S
DOUGLAS        CLOUDY    60  46  59 SE3       30.21S
SAFFORD        CLOUDY    69  45  41 E9        30.20R
$$

AZZ020-021-025-026-031-261400-
SOUTHWEST ARIZONA

CITY           SKY/WX    TMP DP  RH WIND       PRES   REMARKS
YUMA           MOCLDY    78  38  23 NE10      29.91R
$$

CAZ031-033-041-043-047-048-061-261400-
SOUTHERN CALIFORNIA

CITY           SKY/WX    TMP DP  RH WIND       PRES   REMARKS
DOWNTOWN L.A.  CLEAR     73  33  23 N5        29.93R
L.A. AIRPORT   CLEAR     75  32  20 CALM      29.93R
SAN DIEGO      CLEAR     70  41  34 VRB3      29.90R
BURBANK        CLEAR     69  31  24 W3        29.96R
ONTARIO        PTCLDY    67  28  23 NW5       29.97R
RIVERSIDE      CLEAR     68  33  27 E5        29.98R
PALM SPRINGS   CLEAR     81  36  19 W7        29.98R
EL CENTRO NAS  PTCLDY    69  35  28 W8        29.92R
IMPERIAL       CLEAR     70  42  36 W7        29.89R
BLYTHE         PTCLDY    79  33  19 NW8       29.97R
NEEDLES        CLEAR     79  35  20 N12       30.04R
$$

NVZ020-UTZ003-261400-
SOUTHERN NEVADA-UTAH

CITY           SKY/WX    TMP DP  RH WIND       PRES   REMARKS
LAS VEGAS      CLEAR     68  27  21 SW3       30.18R
SALT LAKE CITY CLEAR     50  44  80 SE3       30.41R
$$

NMZ009-TXZ055-261400-
NEW MEXICO-WEST TEXAS

CITY           SKY/WX    TMP DP  RH WIND       PRES   REMARKS
ALBUQUERQUE    PTCLDY    54  34  46 NE6       30.47R
EL PASO        CLOUDY    64  41  42 NE21      30.27R
$$


........................KEY........................
SKY/WX - SKY CONDITION/WEATHER
TMP    - TEMPERATURE IN FAHRENHEIT
DP     - DEW POINT IN FAHRENHEIT
RH     - RELATIVE HUMIDITY IN PERCENT
WIND   - DIRECTION AND SPEED IN MILES PER HOUR (MPH)
VRB    - VARIABLE WIND DIRECTION
PRES   - MEAN SEA LEVEL PRESSURE IN INCHES OF MERCURY
         F - FALLING PRESSURE   R - RISING PRESSURE
         S - STEADY PRESSURE
VSB    - VISIBILITY IN MILES
HX     - HEAT INDEX IN FAHRENHEIT
WCI    - WIND CHILL INDEX IN FAHRENHEIT
TC     - TEMPERATURE IN CELSIUS WHICH IS ALSO KNOWN AS
         TEMPERATURE IN CENTIGRADE
AFB    - AIR FORCE BASE
         LUKE AFB IS LUKE AIR FORCE BASE
         DAVIS-MONTHAN IS DAVIS-MONTHAN AIR FORCE BASE
NAS    - NAVAL AIR STATION
         EL CENTRO NAS IS EL CENTRO NAVAL AIR STATION
N/A    - NOT AVAILABLE





USA.gov is the U.S. government's official web portal to all federal, state and local government web resources and services.